Weather History for KSHV - December, 2013

Change the Weather History Date:

Thursday, December 26, 2013

  Actual Average Record
Temperature  
Mean Temperature 49 °F 47 °F  
Max Temperature 59 °F 57 °F 79 °F (1942)
Min Temperature 38 °F 36 °F 14 °F (1983)
Degree Days  
Heating Degree Days 16 19  
Month to date heating degree days 453 436  
Since 1 July heating degree days 864 807  
Cooling Degree Days 0 0  
Month to date cooling degree days 11 0  
Year to date cooling degree days 2717 2474  
Moisture  
Dew Point 36 °F    
Average Humidity 68    
Maximum Humidity 92    
Minimum Humidity 43    
Precipitation  
Precipitation 0.00 in 0.15 in 6.87 in (1904)
Month to date precipitation 4.98 4.11  
Year to date precipitation 53.45 50.75  
Snow  
Snow 0.00 in - - ()
Month to date snowfall T  
Since 1 July snowfall T  
Snow Depth 0.00 in    
Sea Level Pressure  
Sea Level Pressure 30.37 in    
Wind  
Wind Speed 3 mph (North)    
Max Wind Speed 12 mph    
Max Gust Speed 13 mph    
Visibility 10 miles    
Events      
T = Trace of Precipitation, MM = Missing Value Source: NWS Daily Summary

Daily Weather History Graph

Daily Weather History Graph

Search for Another Location

Airport or City:

Trip Planner

Search our weather history database for the weather conditions in past years. The results will help you decide how hot, cold, wet, or windy it might be!

Date:

Astronomy

Dec. 26, 2013 Rise Set
Actual Time 7:15 AM CST 5:16 PM CST
Civil Twilight 6:48 AM CST 5:44 PM CST
Nautical Twilight 6:17 AM CST 6:14 PM CST
Astronomical Twilight 5:47 AM CST 6:44 PM CST
Moon 12:59 AM CST (12/26) 12:39 PM CST (12/26)
Length of Visible Light 10h 56m
Length of Day
10h 01m
Last Quarter, 38% of the Moon is Illuminated
Dec 26
Last Quarter
Jan 1
New
Jan 7
First Quarter
Jan 15
Full
Jan 23
Last Quarter

Hourly Weather History & Observations

Time (CST) Temp. Windchill Dew Point Humidity Pressure Visibility Wind Dir Wind Speed Gust Speed Precip Events Conditions
12:56 AM 43.0 °F 38.2 °F 36.0 °F 76% 30.36 in 10.0 mi NNW 8.1 mph - N/A   Scattered Clouds
1:56 AM 42.1 °F 39.2 °F 36.0 °F 79% 30.37 in 10.0 mi North 4.6 mph - N/A   Partly Cloudy
2:56 AM 41.0 °F - 35.1 °F 79% 30.36 in 10.0 mi Calm Calm - N/A   Partly Cloudy
3:56 AM 42.1 °F 40.2 °F 35.1 °F 76% 30.36 in 10.0 mi North 3.5 mph - N/A   Partly Cloudy
4:56 AM 39.0 °F 35.7 °F 34.0 °F 82% 30.36 in 10.0 mi North 4.6 mph - N/A   Clear
5:56 AM 37.9 °F 35.5 °F 34.0 °F 86% 30.38 in 10.0 mi North 3.5 mph - N/A   Clear
6:56 AM 37.9 °F - 34.0 °F 86% 30.39 in 10.0 mi Calm Calm - N/A   Partly Cloudy
7:56 AM 39.0 °F 36.8 °F 35.1 °F 86% 30.40 in 10.0 mi North 3.5 mph - N/A   Mostly Cloudy
8:56 AM 45.0 °F 41.8 °F 36.0 °F 71% 30.41 in 10.0 mi ENE 5.8 mph - N/A   Scattered Clouds
9:56 AM 48.0 °F - 35.1 °F 61% 30.44 in 10.0 mi East 8.1 mph - N/A   Scattered Clouds
10:56 AM 51.1 °F - 35.1 °F 54% 30.43 in 10.0 mi Variable 4.6 mph - N/A   Scattered Clouds
11:56 AM 54.0 °F - 35.1 °F 49% 30.39 in 10.0 mi Variable 4.6 mph - N/A   Scattered Clouds
12:56 PM 55.0 °F - 36.0 °F 49% 30.36 in 10.0 mi Variable 4.6 mph - N/A   Mostly Cloudy
1:56 PM 55.9 °F - 35.1 °F 45% 30.32 in 10.0 mi Calm Calm - N/A   Mostly Cloudy
2:56 PM 57.0 °F - 35.1 °F 44% 30.32 in 10.0 mi Calm Calm - N/A   Scattered Clouds
3:56 PM 57.0 °F - 35.1 °F 44% 30.32 in 10.0 mi North 5.8 mph - N/A   Scattered Clouds
4:56 PM 54.0 °F - 36.0 °F 51% 30.34 in 10.0 mi North 5.8 mph - N/A   Mostly Cloudy
5:56 PM 50.0 °F - 37.0 °F 61% 30.35 in 10.0 mi Calm Calm - N/A   Mostly Cloudy
6:56 PM 46.0 °F - 37.0 °F 71% 30.37 in 10.0 mi Calm Calm - N/A   Mostly Cloudy
7:56 PM 43.0 °F - 37.0 °F 80% 30.38 in 10.0 mi Calm Calm - N/A   Scattered Clouds
8:56 PM 42.1 °F - 36.0 °F 79% 30.38 in 10.0 mi Calm Calm - N/A   Scattered Clouds
9:56 PM 39.9 °F - 37.0 °F 89% 30.38 in 10.0 mi Calm Calm - N/A   Scattered Clouds
10:56 PM 42.1 °F - 36.0 °F 79% 30.39 in 10.0 mi Calm Calm - N/A   Scattered Clouds
11:56 PM 39.9 °F - 35.1 °F 83% 30.39 in 10.0 mi Calm Calm - N/A   Scattered Clouds